FW3613 Weather Reports


Display with metric or nautical units.
time (UTC)temp
F
wind
direction
speed
MPH
gust
MPH
rain 1hr
in
rain 24hr
in
rain mn
in
humidity
%
barometer
mb
20260507164048 66 316 3.0 6.0 0.00 0.00 0.00 41 1015.7
20260507163547 66 233 1.0 5.0 0.00 0.00 0.00 42 1015.7
20260507163044 66 291 1.0 4.0 0.00 0.00 0.00 43 1015.7
20260507162542 65 273 1.0 4.0 0.00 0.00 0.00 44 1015.7
20260507162042 65 257 0.0 4.0 0.00 0.00 0.00 46 1015.7
20260507161540 64 285 1.0 4.0 0.00 0.00 0.00 46 1015.8
20260507161038 64 298 0.0 3.0 0.00 0.00 0.00 47 1015.8
20260507160537 64 318 0.0 2.0 0.00 0.00 0.00 49 1015.8
20260507160036 63 304 0.0 2.0 0.00 0.00 0.00 49 1015.9
20260507155538 62 115 0.0 2.0 0.00 0.00 0.00 53 1015.9
20260507155034 62 282 0.0 2.0 0.00 0.00 0.00 53 1015.8
20260507154536 61 282 0.0 2.0 0.00 0.00 0.00 54 1015.9
20260507154034 61 129 0.0 2.0 0.00 0.00 0.00 56 1016.0
20260507153532 60 122 0.0 2.0 0.00 0.00 0.00 56 1016.2
20260507153032 60 112 0.0 2.0 0.00 0.00 0.00 59 1016.2
20260507152534 60 120 0.0 1.0 0.00 0.00 0.00 59 1016.2
20260507152032 59 120 0.0 1.0 0.00 0.00 0.00 61 1016.2
20260507151532 59 117 0.0 1.0 0.00 0.00 0.00 62 1016.2
20260507151033 59 217 0.0 1.0 0.00 0.00 0.00 62 1016.2
20260507150531 58 231 0.0 1.0 0.00 0.00 0.00 64 1016.2
20260507150034 58 231 0.0 1.0 0.00 0.00 0.00 65 1016.3
20260507145532 57 277 0.0 2.0 0.00 0.00 0.00 66 1016.2
20260507145033 57 120 0.0 2.0 0.00 0.00 0.00 68 1016.3
20260507144531 56 120 0.0 1.0 0.00 0.00 0.00 68 1016.2
20260507144031 56 117 0.0 3.0 0.00 0.00 0.00 69 1016.2
20260507143530 55 131 1.0 3.0 0.00 0.00 0.00 70 1016.2
20260507143053 55 123 0.0 1.0 0.00 0.00 0.00 71 1016.2
20260507142530 54 143 0.0 1.0 0.00 0.00 0.00 72 1016.1
20260507142028 54 127 0.0 1.0 0.00 0.00 0.00 72 1016.1
20260507141538 53 129 0.0 1.0 0.00 0.00 0.00 74 1016.1
20260507141028 53 143 0.0 1.0 0.00 0.00 0.00 76 1016.0
20260507140527 52 143 0.0 1.0 0.00 0.00 0.00 77 1015.9
20260507140026 52 143 0.0 0.0 0.00 0.00 0.00 77 1015.8
20260507135526 51 146 0.0 0.0 0.00 0.00 0.00 78 1015.7
20260507135026 51 148 0.0 0.0 0.00 0.00 0.00 79 1015.7
20260507134526 50 150 0.0 0.0 0.00 0.00 0.00 80 1015.7
20260507134029 50 153 0.0 0.0 0.00 0.00 0.00 81 1015.7
20260507133528 49 153 0.0 0.0 0.00 0.00 0.00 81 1015.7
20260507133025 49 153 0.0 0.0 0.00 0.00 0.00 82 1015.6
20260507132524 49 153 0.0 0.0 0.00 0.00 0.00 82 1015.6
20260507132023 49 153 0.0 0.0 0.00 0.00 0.00 82 1015.6
20260507131523 49 153 0.0 0.0 0.00 0.00 0.00 82 1015.5
20260507131026 49 153 0.0 0.0 0.00 0.00 0.00 82 1015.5
20260507130522 49 153 0.0 0.0 0.00 0.00 0.00 81 1015.3
20260507130036 49 153 0.0 0.0 0.00 0.00 0.00 81 1015.3
20260507125522 49 153 0.0 0.0 0.00 0.00 0.00 81 1015.3
20260507125023 49 153 0.0 0.0 0.00 0.00 0.00 81 1015.3
20260507124520 49 153 0.0 0.0 0.00 0.00 0.00 81 1015.2
20260507124020 49 153 0.0 0.0 0.00 0.00 0.00 82 1015.2
20260507123519 49 153 0.0 0.0 0.00 0.00 0.00 82 1015.0
20260507123018 49 153 0.0 0.0 0.00 0.00 0.00 83 1015.0
20260507122517 49 153 0.0 0.0 0.00 0.00 0.00 83 1015.1
20260507122017 49 153 0.0 0.0 0.00 0.00 0.00 82 1015.0
20260507121517 49 153 0.0 0.0 0.00 0.00 0.00 82 1015.0
20260507121016 49 153 0.0 0.0 0.00 0.00 0.00 82 1014.9
20260507120515 49 153 0.0 0.0 0.00 0.00 0.00 82 1014.9
20260507120015 49 153 0.0 0.0 0.00 0.00 0.00 82 1014.9
20260507115515 50 178 0.0 0.0 0.00 0.00 0.00 82 1014.9
20260507115014 50 177 0.0 0.0 0.00 0.00 0.00 83 1014.9
20260507114520 50 177 0.0 0.0 0.00 0.00 0.00 83 1015.0
20260507114014 49 177 0.0 0.0 0.00 0.00 0.00 83 1015.0
20260507113518 49 177 0.0 0.0 0.00 0.00 0.00 83 1015.0
20260507113013 49 177 0.0 0.0 0.00 0.00 0.00 83 1015.0
20260507112514 49 178 0.0 0.0 0.00 0.00 0.00 82 1015.0
20260507112011 50 177 0.0 0.0 0.00 0.00 0.00 81 1014.9
20260507111510 50 177 0.0 0.0 0.00 0.00 0.00 81 1015.0
20260507111010 50 177 0.0 0.0 0.00 0.00 0.00 82 1015.0
20260507110510 50 177 0.0 0.0 0.00 0.00 0.00 82 1014.9
20260507110009 50 177 0.0 0.0 0.00 0.00 0.00 82 1014.8
20260507105507 50 177 0.0 0.0 0.00 0.00 0.00 81 1014.8
20260507105008 50 177 0.0 0.0 0.00 0.00 0.00 80 1014.7
20260507104506 50 177 0.0 0.0 0.00 0.00 0.00 80 1014.7
20260507104005 51 177 0.0 0.0 0.00 0.00 0.00 80 1014.8
20260507103503 51 177 0.0 0.0 0.00 0.00 0.00 79 1014.7
20260507103002 51 177 0.0 0.0 0.00 0.00 0.00 79 1014.7
20260507102502 51 178 0.0 0.0 0.00 0.00 0.00 79 1014.6
20260507102002 51 177 0.0 0.0 0.00 0.00 0.00 79 1014.6
20260507101501 52 177 0.0 0.0 0.00 0.00 0.00 79 1014.6
20260507101102 52 177 0.0 0.0 0.00 0.00 0.00 79 1014.6
20260507100558 52 177 0.0 0.0 0.00 0.00 0.00 78 1014.5
20260507100100 52 177 0.0 0.0 0.00 0.00 0.00 78 1014.5
20260507095556 53 180 0.0 0.0 0.00 0.00 0.00 78 1014.5
20260507095055 53 179 0.0 0.0 0.00 0.00 0.00 77 1014.5
20260507094554 53 180 0.0 0.0 0.00 0.00 0.00 77 1014.5
20260507094053 53 179 0.0 0.0 0.00 0.00 0.00 77 1014.5
20260507093553 53 180 0.0 0.0 0.00 0.00 0.00 77 1014.4
20260507093052 53 179 0.0 0.0 0.00 0.00 0.00 77 1014.4
20260507092551 54 180 0.0 0.0 0.00 0.00 0.00 76 1014.5
20260507092049 54 179 0.0 0.0 0.00 0.00 0.00 76 1014.4
20260507091550 54 180 0.0 0.0 0.00 0.00 0.00 76 1014.4
20260507091049 54 178 0.0 0.0 0.00 0.00 0.00 76 1014.4
20260507090548 54 179 0.0 0.0 0.00 0.00 0.00 76 1014.4
20260507090056 54 179 0.0 0.0 0.00 0.00 0.00 74 1014.4
20260507085545 55 180 0.0 0.0 0.00 0.00 0.00 73 1014.4
20260507085044 55 179 0.0 0.0 0.00 0.00 0.00 73 1014.4
20260507084551 55 179 0.0 0.0 0.00 0.00 0.00 72 1014.3
20260507084042 56 201 0.0 0.0 0.00 0.00 0.00 72 1014.1
20260507083542 56 201 0.0 0.0 0.00 0.00 0.00 71 1014.1
20260507083041 56 201 0.0 0.0 0.00 0.00 0.00 71 1014.0
20260507082538 56 201 0.0 0.0 0.00 0.00 0.00 70 1014.0
20260507082037 57 212 0.0 0.0 0.00 0.00 0.00 70 1014.1
20260507081536 57 212 0.0 0.0 0.00 0.00 0.00 69 1014.0
20260507081035 57 212 0.0 0.0 0.00 0.00 0.00 68 1014.0
20260507080535 57 212 0.0 0.0 0.00 0.00 0.00 67 1013.9
20260507080033 58 214 0.0 0.0 0.00 0.00 0.00 67 1013.9
20260507075531 58 214 0.0 0.0 0.00 0.00 0.00 66 1013.9
20260507075030 58 214 0.0 0.0 0.00 0.00 0.00 66 1013.9
20260507074529 59 214 0.0 0.0 0.00 0.00 0.00 64 1013.9
20260507074027 59 214 0.0 0.0 0.00 0.00 0.00 64 1013.7
20260507073528 59 214 0.0 0.0 0.00 0.00 0.00 63 1013.8
20260507073030 59 214 0.0 0.0 0.00 0.00 0.00 64 1013.7
20260507072528 59 214 0.0 0.0 0.00 0.00 0.00 64 1013.7
20260507072023 60 214 0.0 0.0 0.00 0.00 0.00 64 1013.9
20260507071528 60 214 0.0 1.0 0.00 0.00 0.00 62 1013.9
20260507071027 60 214 0.0 1.0 0.00 0.00 0.00 62 1013.8
20260507070521 61 214 0.0 0.0 0.00 0.00 0.00 62 1013.8
20260507070019 61 214 0.0 0.0 0.00 0.00 0.00 61 1013.9
20260507065519 61 214 0.0 0.0 0.00 0.00 0.00 61 1013.9
20260507065018 62 214 0.0 1.0 0.00 0.00 0.00 60 1013.9
20260507064528 62 214 0.0 1.0 0.00 0.00 0.00 58 1013.9
20260507064018 62 214 0.0 1.0 0.00 0.00 0.00 58 1013.7
20260507063516 62 214 0.0 1.0 0.00 0.00 0.00 58 1013.7
20260507063016 62 214 0.0 0.0 0.00 0.00 0.00 58 1013.7
20260507062521 62 214 0.0 0.0 0.00 0.00 0.00 59 1013.6
20260507062013 62 214 0.0 0.0 0.00 0.00 0.00 62 1013.7
20260507061515 62 214 0.0 0.0 0.00 0.00 0.00 62 1013.7
20260507061012 62 214 0.0 0.0 0.00 0.00 0.00 61 1013.6
20260507060511 62 214 0.0 0.0 0.00 0.00 0.00 60 1013.7
20260507060011 62 214 0.0 0.0 0.00 0.00 0.00 61 1013.6
20260507055511 62 217 0.0 0.0 0.00 0.00 0.00 61 1013.7
20260507055010 63 217 0.0 0.0 0.00 0.00 0.00 63 1013.7
20260507054509 64 217 0.0 0.0 0.00 0.00 0.00 60 1013.6
20260507054009 64 217 0.0 0.0 0.00 0.00 0.00 57 1013.6
20260507053509 64 217 0.0 0.0 0.00 0.00 0.00 56 1013.6
20260507053111 64 217 0.0 0.0 0.00 0.00 0.00 57 1013.6
20260507052507 64 217 0.0 0.0 0.00 0.00 0.00 56 1013.5
20260507052007 65 217 0.0 0.0 0.00 0.00 0.00 57 1013.5
20260507051507 65 217 0.0 0.0 0.00 0.00 0.00 56 1013.4
20260507051007 65 217 0.0 0.0 0.00 0.00 0.00 56 1013.4
20260507050509 65 217 0.0 0.0 0.00 0.00 0.00 55 1013.4
20260507050017 65 217 0.0 0.0 0.00 0.00 0.00 55 1013.2
20260507045512 65 217 0.0 0.0 0.00 0.00 0.00 57 1013.1
20260507045006 65 217 0.0 0.0 0.00 0.00 0.00 57 1013.0
20260507044506 65 217 0.0 0.0 0.00 0.00 0.00 56 1013.0
20260507044006 66 217 0.0 0.0 0.00 0.00 0.00 56 1013.0
20260507043505 66 217 0.0 0.0 0.00 0.00 0.00 56 1013.0
20260507043005 66 217 0.0 0.0 0.00 0.00 0.00 54 1013.0
20260507042505 67 217 0.0 1.0 0.00 0.00 0.00 54 1013.0
20260507042004 66 217 0.0 2.0 0.00 0.00 0.00 54 1013.0
20260507041515 66 274 0.0 2.0 0.00 0.00 0.00 53 1012.9
20260507041004 66 136 0.0 1.0 0.00 0.00 0.00 52 1012.8
20260507040504 67 136 0.0 1.0 0.00 0.00 0.00 51 1012.9
20260507040004 67 136 0.0 1.0 0.00 0.00 0.00 51 1012.9
20260507035504 68 136 0.0 1.0 0.00 0.00 0.00 51 1012.7
20260507035004 68 136 0.0 1.0 0.00 0.00 0.00 51 1012.7
20260507034504 68 136 0.0 1.0 0.00 0.00 0.00 50 1012.7
20260507034004 68 136 0.0 1.0 0.00 0.00 0.00 49 1012.6
20260507033504 69 136 0.0 1.0 0.00 0.00 0.00 48 1012.7
20260507033003 69 124 0.0 1.0 0.00 0.00 0.00 48 1012.6
20260507032502 69 131 0.0 0.0 0.00 0.00 0.00 46 1012.6
20260507032002 69 131 0.0 1.0 0.00 0.00 0.00 49 1012.5
20260507031506 70 131 0.0 1.0 0.00 0.00 0.00 47 1012.6
20260507031002 70 126 0.0 1.0 0.00 0.00 0.00 46 1012.4
20260507030504 71 126 0.0 1.0 0.00 0.00 0.00 45 1012.4
20260507030003 71 126 0.0 0.0 0.00 0.00 0.00 49 1012.4
20260507025502 71 125 0.0 0.0 0.00 0.00 0.00 46 1012.4
20260507025001 71 125 0.0 0.0 0.00 0.00 0.00 45 1012.5
20260507024504 71 125 0.0 0.0 0.00 0.00 0.00 44 1012.6
20260507024001 72 125 0.0 0.0 0.00 0.00 0.00 46 1012.6
20260507023503 72 125 0.0 0.0 0.00 0.00 0.00 45 1012.6
20260507023000 72 125 0.0 0.0 0.00 0.00 0.00 44 1012.6
20260507022600 73 125 0.0 1.0 0.00 0.00 0.00 43 1012.6
20260507022100 73 126 0.0 1.0 0.00 0.00 0.00 40 1012.6
20260507021559 73 127 0.0 1.0 0.00 0.00 0.00 41 1012.7
20260507021059 74 127 0.0 0.0 0.00 0.00 0.00 41 1012.8
20260507020559 74 127 0.0 0.0 0.00 0.00 0.00 40 1012.8
20260507020118 74 127 0.0 0.0 0.00 0.00 0.00 39 1012.9
20260507015558 75 127 0.0 1.0 0.00 0.00 0.00 38 1012.9
20260507015057 76 127 0.0 1.0 0.00 0.00 0.00 35 1012.9
20260507014600 76 288 0.0 1.0 0.00 0.00 0.00 31 1013.0
20260507014057 77 288 0.0 1.0 0.00 0.00 0.00 31 1013.0
20260507013557 77 287 0.0 2.0 0.00 0.00 0.00 31 1013.0
20260507013057 77 285 0.0 2.0 0.00 0.00 0.00 30 1013.1
20260507012559 77 264 0.0 0.0 0.00 0.00 0.00 29 1013.1
20260507012057 77 264 0.0 0.0 0.00 0.00 0.00 29 1013.2
20260507011555 77 277 0.0 0.0 0.00 0.00 0.00 29 1013.2
20260507011055 77 277 0.0 0.0 0.00 0.00 0.00 29 1013.2
20260507010555 77 277 0.0 1.0 0.00 0.00 0.00 29 1013.2
20260507010109 77 277 0.0 1.0 0.00 0.00 0.00 29 1013.3
20260507005554 77 276 0.0 3.0 0.00 0.00 0.00 29 1013.3
20260507005055 77 277 0.0 3.0 0.00 0.00 0.00 29 1013.5
20260507004553 77 285 0.0 2.0 0.00 0.00 0.00 28 1013.5
20260507004053 77 291 0.0 4.0 0.00 0.00 0.00 29 1013.6
20260507003553 77 285 1.0 4.0 0.00 0.00 0.00 29 1013.6
20260507003052 77 333 0.0 3.0 0.00 0.00 0.00 28 1013.6
20260507002552 77 282 1.0 4.0 0.00 0.00 0.00 28 1013.7
20260507002052 77 290 0.0 4.0 0.00 0.00 0.00 28 1013.7
20260507001556 78 290 0.0 4.0 0.00 0.00 0.00 28 1013.7
20260507001051 78 280 1.0 4.0 0.00 0.00 0.00 27 1013.7
20260507000553 77 288 1.0 3.0 0.00 0.00 0.00 27 1013.7
20260507000051 78 287 0.0 3.0 0.00 0.00 0.00 27 1013.8
20260506235550 78 296 0.0 7.0 0.00 0.00 0.00 27 1013.8
20260506235050 78 288 3.0 7.0 0.00 0.00 0.00 27 1013.9
20260506234555 79 289 2.0 9.0 0.00 0.00 0.00 26 1014.0
20260506234050 79 290 1.0 9.0 0.00 0.00 0.00 26 1014.1
20260506233553 79 301 0.0 5.0 0.00 0.00 0.00 26 1014.1
20260506233048 79 291 2.0 5.0 0.00 0.00 0.00 27 1014.3
20260506232547 79 288 1.0 4.0 0.00 0.00 0.00 27 1014.3
20260506232048 78 289 1.0 4.0 0.00 0.00 0.00 26 1014.4
20260506231604 78 291 1.0 4.0 0.00 0.00 0.00 26 1014.5
20260506231046 78 71 0.0 4.0 0.00 0.00 0.00 27 1014.6
20260506230545 78 283 2.0 5.0 0.00 0.00 0.00 26 1014.7
20260506230104 77 120 1.0 5.0 0.00 0.00 0.00 26 1014.8
20260506225545 78 257 1.0 4.0 0.00 0.00 0.00 26 1015.0
20260506225045 78 288 2.0 4.0 0.00 0.00 0.00 25 1015.1
20260506224544 78 123 0.0 6.0 0.00 0.00 0.00 26 1015.2
20260506224042 77 115 1.0 6.0 0.00 0.00 0.00 27 1015.3
20260506223545 77 294 0.0 8.0 0.00 0.00 0.00 27 1015.4
20260506223042 77 290 3.0 8.0 0.00 0.00 0.00 26 1015.5
20260506222541 77 269 1.0 7.0 0.00 0.00 0.00 26 1015.6
20260506222044 77 296 2.0 6.0 0.00 0.00 0.00 26 1015.7
20260506221544 77 307 1.0 4.0 0.00 0.00 0.00 25 1015.8
20260506221042 77 285 0.0 4.0 0.00 0.00 0.00 25 1015.9
20260506220540 76 284 1.0 5.0 0.00 0.00 0.00 24 1016.1
20260506220045 77 305 1.0 5.0 0.00 0.00 0.00 25 1016.1
20260506215538 77 280 2.0 5.0 0.00 0.00 0.00 23 1016.2
20260506215037 77 297 1.0 4.0 0.00 0.00 0.00 23 1016.3
20260506214539 76 82 1.0 4.0 0.00 0.00 0.00 23 1016.4
20260506214037 76 281 1.0 4.0 0.00 0.00 0.00 23 1016.5
20260506213537 76 290 2.0 4.0 0.00 0.00 0.00 24 1016.5
20260506213038 75 114 0.0 5.0 0.00 0.00 0.00 25 1016.6
20260506212534 76 263 1.0 6.0 0.00 0.00 0.00 24 1016.7
20260506212034 75 295 1.0 6.0 0.00 0.00 0.00 24 1016.7
20260506211536 76 285 1.0 5.0 0.00 0.00 0.00 23 1016.9
20260506211034 75 87 0.0 4.0 0.00 0.00 0.00 24 1017.0
20260506210534 75 111 1.0 4.0 0.00 0.00 0.00 23 1017.1
20260506210034 75 283 0.0 2.0 0.00 0.00 0.00 24 1017.1
20260506205530 74 120 0.0 3.0 0.00 0.00 0.00 26 1017.2
20260506205030 74 191 0.0 3.0 0.00 0.00 0.00 24 1017.2
20260506204534 73 25 0.0 4.0 0.00 0.00 0.00 25 1017.2
20260506204030 72 300 0.0 4.0 0.00 0.00 0.00 25 1017.3
20260506203529 72 297 0.0 5.0 0.00 0.00 0.00 24 1017.4
20260506203031 73 297 2.0 5.0 0.00 0.00 0.00 23 1017.4
20260506202528 73 115 1.0 3.0 0.00 0.00 0.00 24 1017.4
20260506202027 73 108 0.0 3.0 0.00 0.00 0.00 25 1017.4
20260506201536 73 141 0.0 3.0 0.00 0.00 0.00 24 1017.5
20260506201026 73 132 1.0 4.0 0.00 0.00 0.00 24 1017.6
20260506200525 72 338 1.0 4.0 0.00 0.00 0.00 25 1017.6
20260506200024 72 131 1.0 4.0 0.00 0.00 0.00 25 1017.7
20260506195523 71 293 0.0 2.0 0.00 0.00 0.00 25 1017.7
20260506195023 71 277 0.0 3.0 0.00 0.00 0.00 24 1017.8
20260506194522 71 243 1.0 3.0 0.00 0.00 0.00 24 1017.8
20260506194024 71 297 0.0 2.0 0.00 0.00 0.00 24 1017.9
20260506193520 70 285 0.0 4.0 0.00 0.00 0.00 25 1018.0
20260506193024 70 287 1.0 5.0 0.00 0.00 0.00 25 1018.1
20260506192519 71 276 1.0 5.0 0.00 0.00 0.00 24 1018.1
20260506192021 70 115 0.0 4.0 0.00 0.00 0.00 24 1018.1
20260506191518 70 90 1.0 4.0 0.00 0.00 0.00 25 1018.3
20260506191018 70 78 0.0 4.0 0.00 0.00 0.00 26 1018.4
20260506190516 69 114 1.0 5.0 0.00 0.00 0.00 26 1018.5
20260506190023 69 103 1.0 5.0 0.00 0.00 0.00 26 1018.5
20260506185513 69 131 0.0 4.0 0.00 0.00 0.00 25 1018.6
20260506185013 68 181 1.0 5.0 0.00 0.00 0.00 26 1018.6
20260506184519 68 136 2.0 5.0 0.00 0.00 0.00 26 1018.7
20260506184011 68 235 0.0 5.0 0.00 0.00 0.00 26 1018.7
20260506183511 67 86 1.0 5.0 0.00 0.00 0.00 26 1018.9
20260506183010 67 124 0.0 5.0 0.00 0.00 0.00 26 1018.9
20260506182507 66 118 2.0 6.0 0.00 0.00 0.00 27 1018.9
20260506182006 66 136 1.0 6.0 0.00 0.00 0.00 27 1018.9
20260506181505 65 100 1.0 5.0 0.00 0.00 0.00 27 1018.9
20260506181008 65 131 2.0 6.0 0.00 0.00 0.00 27 1019.0
20260506180504 65 109 2.0 6.0 0.00 0.00 0.00 28 1019.1
20260506180005 65 27 1.0 6.0 0.00 0.00 0.00 27 1019.1
20260506175502 65 148 1.0 6.0 0.00 0.00 0.00 28 1019.2
20260506175001 65 125 2.0 4.0 0.00 0.00 0.00 30 1019.2
20260506174502 64 120 2.0 5.0 0.00 0.00 0.00 29 1019.2
20260506174001 64 115 2.0 5.0 0.00 0.00 0.00 30 1019.1
20260506173501 63 81 2.0 5.0 0.00 0.00 0.00 29 1019.2
20260506173101 63 103 1.0 5.0 0.00 0.00 0.00 29 1019.2
20260506172600 63 111 2.0 6.0 0.00 0.00 0.00 31 1019.2
20260506172059 63 280 2.0 6.0 0.00 0.00 0.00 30 1019.2
20260506171608 62 112 2.0 8.0 0.00 0.00 0.00 30 1019.2
20260506171100 62 86 2.0 8.0 0.00 0.00 0.00 32 1019.2
20260506170559 62 42 3.0 7.0 0.00 0.00 0.00 31 1019.2
20260506170100 62 21 2.0 8.0 0.00 0.00 0.00 32 1019.2
20260506165601 61 111 2.0 8.0 0.00 0.00 0.00 31 1019.2
20260506165058 61 94 2.0 8.0 0.00 0.00 0.00 33 1019.3
20260506164559 61 88 3.0 8.0 0.00 0.00 0.00 32 1019.4